When you browse on this site, cookies collect data to enhance your experience and personalize the content and advertising you see.
Visit our Privacy Policy to learn more. By continuing to use the site, you agree to this use of cookies and data.
  • în România
  • Lista ţărilor
  • Pe 7 zile
  • Temperatura apei
  • Meteo pe hartă
  • Widget-uri
  • user-avatar
    Intrare

    Meteo pe oră la Bristol

    Astăzi, 29 Mai, Vineri

    Timp Temperatura Precipitaţii Vânt Presiune Umiditate
    00:00 +10°C° 0 mm 3 m/s 770 mmHg 68%
    01:00 +9°C° 0 mm 3 m/s 770 mmHg 68%
    02:00 +9°C° 0 mm 3 m/s 770 mmHg 69%
    03:00 +9°C° 0 mm 3 m/s 770 mmHg 69%
    04:00 +9°C° 0 mm 3 m/s 770 mmHg 71%
    05:00 +10°C° 0 mm 3 m/s 770 mmHg 73%
    06:00 +11°C° 0 mm 3 m/s 769 mmHg 76%
    07:00 +13°C° 0 mm 3 m/s 769 mmHg 73%
    08:00 +16°C° 0 mm 3 m/s 769 mmHg 70%
    09:00 +18°C° 0 mm 4 m/s 769 mmHg 68%
    10:00 +19°C° 0 mm 4 m/s 769 mmHg 64%
    11:00 +20°C° 0 mm 4 m/s 769 mmHg 60%
    12:00 +21°C° 0 mm 4 m/s 769 mmHg 56%
    13:00 +21°C° 0 mm 4 m/s 768 mmHg 56%
    14:00 +22°C° 0 mm 4 m/s 768 mmHg 56%
    15:00 +22°C° 0 mm 4 m/s 767 mmHg 57%
    16:00 +22°C° 0 mm 3 m/s 767 mmHg 61%
    17:00 +21°C° 0 mm 3 m/s 767 mmHg 66%
    18:00 +21°C° 0 mm 2 m/s 766 mmHg 71%
    19:00 +19°C° 0 mm 2 m/s 767 mmHg 73%
    20:00 +16°C° 0 mm 2 m/s 767 mmHg 76%
    21:00 +13°C° 0 mm 3 m/s 767 mmHg 78%
    22:00 +13°C° 0 mm 2 m/s 767 mmHg 75%
    23:00 +12°C° 0 mm 2 m/s 767 mmHg 72%

    Mâine, 30 Mai, Sâmbătă

    Timp Temperatura Precipitaţii Vânt Presiune Umiditate
    00:00 +10°C° 0 mm 2 m/s 767 mmHg 69%
    01:00 +9°C° 0 mm 2 m/s 767 mmHg 66%
    02:00 +8°C° 0 mm 2 m/s 767 mmHg 63%
    03:00 +8°C° 0 mm 2 m/s 767 mmHg 61%
    04:00 +8°C° 0 mm 2 m/s 767 mmHg 64%
    05:00 +9°C° 0 mm 2 m/s 767 mmHg 68%
    06:00 +9°C° 0 mm 2 m/s 767 mmHg 71%
    07:00 +12°C° 0 mm 3 m/s 767 mmHg 70%
    08:00 +14°C° 0 mm 3 m/s 766 mmHg 68%
    09:00 +17°C° 0 mm 3 m/s 766 mmHg 67%
    10:00 +18°C° 0 mm 3 m/s 766 mmHg 64%
    11:00 +20°C° 0 mm 3 m/s 766 mmHg 61%
    12:00 +21°C° 0 mm 3 m/s 766 mmHg 58%
    13:00 +22°C° 0 mm 3 m/s 766 mmHg 58%
    14:00 +22°C° 0 mm 3 m/s 766 mmHg 59%
    15:00 +22°C° 0 mm 3 m/s 765 mmHg 59%
    16:00 +22°C° 0 mm 3 m/s 765 mmHg 63%
    17:00 +21°C° 0 mm 3 m/s 765 mmHg 67%
    18:00 +21°C° 0 mm 4 m/s 765 mmHg 71%
    19:00 +19°C° 0 mm 4 m/s 765 mmHg 75%
    20:00 +17°C° 0 mm 4 m/s 765 mmHg 79%
    21:00 +14°C° 0 mm 4 m/s 765 mmHg 82%
    22:00 +13°C° 0 mm 3 m/s 765 mmHg 82%
    23:00 +12°C° 0 mm 3 m/s 766 mmHg 81%

    Poimâine, 31 Mai, Duminică

    Timp Temperatura Precipitaţii Vânt Presiune Umiditate
    00:00 +11°C° 0 mm 3 m/s 766 mmHg 81%
    01:00 +10°C° 0 mm 3 m/s 766 mmHg 84%
    02:00 +10°C° 0 mm 3 m/s 766 mmHg 87%
    03:00 +9°C° 0 mm 3 m/s 766 mmHg 90%
    04:00 +10°C° 0 mm 3 m/s 766 mmHg 88%
    05:00 +11°C° 0 mm 3 m/s 766 mmHg 87%
    06:00 +11°C° 0 mm 3 m/s 766 mmHg 86%
    07:00 +14°C° 0 mm 4 m/s 766 mmHg 80%
    08:00 +17°C° 0 mm 4 m/s 766 mmHg 74%
    09:00 +19°C° 0 mm 4 m/s 767 mmHg 69%
    10:00 +20°C° 0 mm 5 m/s 767 mmHg 65%
    11:00 +21°C° 0 mm 5 m/s 767 mmHg 61%
    12:00 +22°C° 0 mm 5 m/s 767 mmHg 57%
    13:00 +22°C° 0 mm 4 m/s 767 mmHg 57%
    14:00 +22°C° 0 mm 4 m/s 766 mmHg 57%
    15:00 +22°C° 0 mm 4 m/s 766 mmHg 57%
    16:00 +21°C° 0 mm 4 m/s 766 mmHg 62%
    17:00 +21°C° 0 mm 4 m/s 766 mmHg 66%
    18:00 +20°C° 0 mm 3 m/s 766 mmHg 70%
    19:00 +18°C° 0 mm 3 m/s 766 mmHg 73%
    20:00 +16°C° 0 mm 3 m/s 767 mmHg 76%
    21:00 +14°C° 0 mm 3 m/s 767 mmHg 79%
    22:00 +13°C° 0 mm 3 m/s 767 mmHg 83%
    23:00 +12°C° 0 mm 3 m/s 767 mmHg 87%

    1 Iunie, Luni

    Timp Temperatura Precipitaţii Vânt Presiune Umiditate
    00:00 +11°C° 0 mm 3 m/s 767 mmHg 91%
    01:00 +11°C° 0 mm 3 m/s 767 mmHg 91%
    02:00 +10°C° 0 mm 3 m/s 767 mmHg 91%
    03:00 +9°C° 0 mm 3 m/s 767 mmHg 92%
    04:00 +10°C° 0 mm 3 m/s 767 mmHg 89%
    05:00 +10°C° 0 mm 4 m/s 767 mmHg 86%
    06:00 +11°C° 0 mm 4 m/s 767 mmHg 83%
    07:00 +12°C° 0 mm 4 m/s 767 mmHg 78%
    08:00 +14°C° 0 mm 5 m/s 767 mmHg 72%
    09:00 +16°C° 0 mm 5 m/s 767 mmHg 67%
    10:00 +17°C° 0 mm 5 m/s 767 mmHg 65%
    11:00 +19°C° 0 mm 5 m/s 767 mmHg 63%
    12:00 +20°C° 0 mm 4 m/s 767 mmHg 60%
    13:00 +21°C° 0 mm 4 m/s 767 mmHg 61%
    14:00 +21°C° 0 mm 4 m/s 767 mmHg 62%
    15:00 +21°C° 0 mm 4 m/s 766 mmHg 62%
    16:00 +21°C° 0.1 mm 4 m/s 766 mmHg 67%
    17:00 +20°C° 0.1 mm 4 m/s 766 mmHg 71%
    18:00 +20°C° 0.1 mm 4 m/s 766 mmHg 75%
    19:00 +18°C° 0 mm 4 m/s 766 mmHg 77%
    20:00 +15°C° 0 mm 4 m/s 766 mmHg 78%
    21:00 +13°C° 0 mm 4 m/s 767 mmHg 79%
    22:00 +12°C° 0 mm 3 m/s 767 mmHg 82%
    23:00 +11°C° 0 mm 3 m/s 767 mmHg 85%

    2 Iunie, Marţi

    Timp Temperatura Precipitaţii Vânt Presiune Umiditate
    00:00 +10°C° 0 mm 3 m/s 767 mmHg 88%
    01:00 +9°C° 0 mm 3 m/s 766 mmHg 89%
    02:00 +8°C° 0 mm 3 m/s 766 mmHg 90%
    03:00 +8°C° 0 mm 3 m/s 766 mmHg 90%
    04:00 +8°C° 0 mm 3 m/s 766 mmHg 89%
    05:00 +9°C° 0 mm 3 m/s 766 mmHg 88%
    06:00 +10°C° 0 mm 4 m/s 766 mmHg 87%
    07:00 +12°C° 0 mm 4 m/s 765 mmHg 81%
    08:00 +14°C° 0 mm 5 m/s 765 mmHg 75%
    09:00 +16°C° 0 mm 5 m/s 765 mmHg 70%
    10:00 +17°C° 0 mm 5 m/s 765 mmHg 67%
    11:00 +19°C° 0 mm 5 m/s 765 mmHg 64%
    12:00 +20°C° 0 mm 5 m/s 764 mmHg 61%
    13:00 +21°C° 0 mm 4 m/s 764 mmHg 61%
    14:00 +21°C° 0 mm 4 m/s 763 mmHg 61%
    15:00 +21°C° 0 mm 4 m/s 763 mmHg 61%
    16:00 +21°C° 0 mm 4 m/s 763 mmHg 64%
    17:00 +20°C° 0 mm 4 m/s 762 mmHg 67%
    18:00 +20°C° 0 mm 4 m/s 762 mmHg 70%
    19:00 +18°C° 0 mm 3 m/s 762 mmHg 75%
    20:00 +16°C° 0 mm 3 m/s 762 mmHg 81%
    21:00 +14°C° 0 mm 2 m/s 762 mmHg 86%
    22:00 +13°C° 0 mm 2 m/s 762 mmHg 87%
    23:00 +12°C° 0 mm 2 m/s 762 mmHg 88%

    3 Iunie, Miercuri

    Timp Temperatura Precipitaţii Vânt Presiune Umiditate
    00:00 +10°C° 0 mm 2 m/s 761 mmHg 89%
    01:00 +10°C° 0 mm 2 m/s 761 mmHg 89%
    02:00 +10°C° 0 mm 2 m/s 761 mmHg 89%
    03:00 +9°C° 0 mm 2 m/s 760 mmHg 90%
    04:00 +10°C° 0 mm 3 m/s 760 mmHg 87%
    05:00 +10°C° 0 mm 3 m/s 760 mmHg 85%
    06:00 +11°C° 0 mm 4 m/s 760 mmHg 83%
    07:00 +12°C° 0 mm 4 m/s 760 mmHg 78%
    08:00 +14°C° 0 mm 4 m/s 760 mmHg 72%
    09:00 +15°C° 0 mm 5 m/s 760 mmHg 67%
    10:00 +17°C° 0 mm 5 m/s 760 mmHg 64%
    11:00 +19°C° 0 mm 5 m/s 760 mmHg 62%
    12:00 +20°C° 0 mm 5 m/s 759 mmHg 60%
    13:00 +20°C° 0 mm 5 m/s 759 mmHg 59%
    14:00 +20°C° 0 mm 5 m/s 759 mmHg 59%
    15:00 +21°C° 0 mm 5 m/s 758 mmHg 59%
    16:00 +20°C° 0 mm 4 m/s 758 mmHg 62%
    17:00 +20°C° 0 mm 4 m/s 758 mmHg 65%
    18:00 +19°C° 0 mm 4 m/s 758 mmHg 69%
    19:00 +17°C° 0 mm 3 m/s 758 mmHg 74%
    20:00 +14°C° 0 mm 3 m/s 758 mmHg 80%
    21:00 +13°C° 0 mm 2 m/s 759 mmHg 86%
    22:00 +12°C° 0 mm 2 m/s 758 mmHg 86%
    23:00 +11°C° 0 mm 1 m/s 758 mmHg 87%
    Arată mai mult